Location: Asheville, NC
(35.6000°N, 82.5500°W)
Time: 18:44:25
(UTC-04:00)

STRAND 1 - Pass Details

Date: 10 March 2018
Orbit: 769 x 781 km, 98.5° (Epoch: 20 June)

Event Time Altitude Azimuth Distance (km) Brightness Sun altitude
Rises 21:22:08 0° 352° (N) 3,262 ? -34.4°
Reaches altitude 10° 21:25:18 10° 332° (NNW) 2,328 ? -35.0°
Maximum altitude 21:28:18 16° 296° (WNW) 1,940 ? -35.5°
Drops below altitude 10° 21:31:19 10° 259° (W) 2,315 ? -36.1°
Sets 21:34:28 0° 238° (WSW) 3,236 ? -36.7°
